Погода в Элисте

Погода в Элисте : погода сейчас, прогноз погоды и архив. Всё, что Вы хотите узнать о погоде в Элисте!

Поиск расширенной информации на нашем сайте:

Другие новости

Новости СМИ2

Главная страница сайта

Новости сайта

03.07.2017

Напоминаем, что на нашем специализированном сайте Метеоцентр.Азия вы можете получить высокодетализированные автоматические прогнозы погоды по пунктам России, СНГ и мира в авиационном формате (включающие направление и скорость ветра, видимость, явления погоды, количество и форму облачности, нижнюю и верхнюю границу облачности).


Погода в Элисте - сегодня

Время (UTC), дата Ветер
(°,м/с) 
Видим.   Явления Облачность Т
(°С)
Тd
(°С)
f(%) Тe
(°С)
Pmin
(гПа)
dP
(гПа)
Po
(мм)
O2
(г/м3)
Тmin Tmax R s Состояние
почвы
06 16.06.18 060 (СВ) 6{11}  20000 м    3/0 верхняя 
[Ci fib]
+26.9 +4.8 24 +27  1009  0.6  740  271           
09 16.06.18 070 (В) 8-13{13}  20000 м    3/0 верхняя 
[Ci fib]
+31.3 +1.5 15 +31  1007.9  -0.8  740  267           
12 16.06.18 050 (СВ) 8-12{13}  20000 м    3/0 верхняя 
[Ci fib]
+32.9 +0.5 13 +33  1006.9  -0.9  739  266           
15 16.06.18 060 (СВ) 7-12  20000 м    3/0 верхняя 
[Ci fib]
+31.7 +0.7 14 +32  1007.3  0.3  739  267    +33.4       
18 16.06.18 040 (СВ) 8-12{13}  10 км    3/0 верхняя 
[Ci fib]
+26.8 +4.2 23 +27  1009.4  1.7  740  271           
21 16.06.18 060 (СВ) 7-10{14}  10 км    3/0 верхняя 
[Ci fib]
+22.1 +1.6 26 +22  1010.6  1.7  741  276           
00 17.06.18 050 (СВ) 8-10{10}  10 км    3/0 верхняя 
[Ci fib]
+18.7 -0.4 28 +19  1011.5  0.6  741  280           
03 17.06.18 060 (СВ) 20000 м    3/0 верхняя 
[Ci fib]
+17.7 -2.7 25 +17  1012.2  0.7  742  281  +16.8        сухая 
06 17.06.18 070 (В) 8-11{12}  20000 м    3/0 верхняя 
[Ci fib]
+23.7 -2 18 +24  1011.3  -0.5  742  275           
09 17.06.18 060 (СВ) 6{12}  20000 м    3/0 верхняя 
[Ci fib]
+26.7 -4.5 12 +27  1010.9  -0.2  742  273           
12 17.06.18 060 (СВ) 6{11}  20000 м    3/0 верхняя 
[Ci fib]
+27.7 -5.7 11 +28  1009.8  -1  741  271           
15 17.06.18 070 (В) 5{10}  20000 м    8/0 средняя, верхняя 
[Ac trans|Ci]
+26.6 -7.7 10 +27  1009.4  -0.5  740  273    +28.7       
18 17.06.18 050 (СВ) 10 км    8/0 средняя, верхняя 
[Ac trans|Ci]
+22.5 -7.3 13 +23  1010.7  741  277           
21 17.06.18 090 (В) 10 км    8/0 средняя 
[Ac trans]
+19.6 -4.9 19 +20  1010.7  -0.2  741  279           
00 18.06.18 040 (СВ) 10 км    8/0 средняя, верхняя 
[Ac trans|Ci fib]
+17.5 +2.4 36 +18  1010.6  -0.2  741  280           
03 18.06.18 040 (СВ) 20000 м    6/0 верхняя 
[Ci]
+19.3 +0.4 28 +20  1010.8  0.3  741  279  +17.2        сухая 
06 18.06.18 090 (В) 20000 м    8/0 кучево-дожд., средняя, верхняя 
[Cb cap|Ac inh|Cs]
+24.6 -2.8 16 +25  1010.6  0.2             
09 18.06.18 050 (СВ) 20000 м    8/1 1000 м средняя, верхняя 
[Cu med, cong|Ac trans|Ci sp]
+28.1 -4.1 12 +28  1009.7  -0.7  741  271           
12 18.06.18 120 (ЮВ) 20000 м    8/1 1000 м средняя, верхняя 
[Cu med, cong|Ac As|Ci fib]
+29.9 -4.9 10 +30  1008.8  -0.7  740  269           
15 18.06.18 060 (СВ) 20000 м    8/0 верхняя 
[Ci fib]
+28.9 -5.2 10 +29  1008.6  -0.3  740  270    +30.1       
18 18.06.18 040 (СВ) 10 км    3/0 верхняя 
[Ci fib]
+23 -5 15 +23  1010.1  741  276           
21 18.06.18 310 (СЗ) 10 км    3/0 верхняя 
[Ci fib]
+20.6 -3.6 19 +21  1010.4  0.2  741  278           
00 19.06.18 270 (З) 10 км    3/0 верхняя 
[Ci fib]
+19.3 +0.9 29 +20  1010.7  0.2  741  279           
03 19.06.18 290 (З) 20000 м    1/0 верхняя 
[Ci fib]
+20.7 +2.5 30 +21  1011.7  1.1  742  277  +16        сухая 
06 19.06.18 070 (В) 20000 м    3/0 верхняя 
[Ci fib]
+27.5 -1 15 +28  1011.8  1.1  742  272           
Время (UTC), дата Ветер
(°,м/с) 
Видим.   Явления Облачность Т
(°С)
Тd
(°С)
f(%) Тe
(°С)
Pmin
(гПа)
dP
(гПа)
Po
(мм)
O2
(г/м3)
Тmin Tmax R s Состояние
почвы

Для получения пояснительной информации подведите курсор к названию столбца.

ПОГОДА в Элисте - архив

Всё, что Вы хотите узнать о погоде в Элисте - удобно и подробно!

Выберите нужную дату (начиная с 1 января 2015* года) и нажмите кнопку "Найти".
Будут отображены архивные сводки погоды по пункту Элиста, начиная с указанной даты.


Отображать данные в формате CSV (для использования в таблицах Excel)


Внимание! Наш архив погоды предназначен исключительно для личного некоммерческого использования в познавательных целях. Если Вам необходимы официальные справки о состоянии погоды (для производственных, юридических, коммерческих и т.п. целей), обращайтесь в органы Росгидромета.

*Примечание: данная дата относится к архиву по метеостанциям СССР (Россия, СНГ, Балтия).
Архив по метеостанциям Зарубежной Европы и Азии (кроме Китая) хранится 10 дней, по другим регионам земного шара (Китай, Африка, Америка, Австралия, Океания) - 1 день.

Элиста - район местоположения метеостанции


Название, широта, долгота, высота метеостанции:
Элиста 46.4°ш. 44.3°д. 155 м над ур. моря [Российская Федерация]

Дополнительная информация

В oтличие oт бoльшинства пoгoдных сайтoв мы публикуем пoдрoбную метеoинфoрмацию в детальнoм прoфессиoнальнoм фoрмате.

Характеристики температуры и влажнoсти вoздуха измеряются на высoте 2 м в тени вдали oт зданий и деревьев.
Скoрoсть ветра измеряется на высoте 10 м (на урoвне рoста челoвека скoрoсть ветра ниже в 1.5-2 раза). Если метеoстанция нахoдится в гoрoде или в лесу, тo скoрoсть ветра занижена на 2-4 м/с пo сравнению с oткрытым местoм. Скoрoсть ветра над акватoриями крупных рек и oзёр, а также на вершинах хoлмoв на 2-5 м/с выше, чем в oбычных услoвиях.
Атмoсфернoе давление в разных тoчках местнoсти мoжет значительнo oтличаться oт давления на метеoстанции, в зависимoсти oт услoвий рельефа (при пoдъёме на 10 м давление пoнижается примернo на 1 мм рт.ст.).